ENBRENAL

Guest
Details From ENBR - Bergen Lufthavn Flesland
To ENAL - Alesund lufthavn - Vigra
Flight Number -
Tags generated
Created
Modified
Stats Distance 139 nm / 257 km
Max Altitude 7,400 ft / 2,256 m
Waypoints 3
Social Downloads 0
Likes 0
Share VATSIM

Download

Looking for another format? Having issues loading an existing format? Contact us
Advertisement - Login to hide

Notes

Basic altitude profile: - Ascent Rate: 1200ft/min - Ascent Speed: 140kts - Cruise Altitude: 15000ft - Cruise Speed: 200kts - Descent Rate: 1200ft/min - Descent Speed: 180kts Options: - Use NATs: yes - Use PACOTS: yes - Use low airways: yes - Use high airways: yes

Route

ENBR AMKAR ENAL

ID Type Via Altitude (ft/m) Position (lat/lon) Dist (leg/tot) Name
O ENBR APT - 0 / 0 60.29339 / 5.21814 - / 0 nm Bergen Lufthavn Flesland
AMKAR FIX - 7,400 / 2,256 62.00000 / 5.82556 103 / 103 nm
O ENAL APT - 0 / 0 62.56037 / 6.11016 34 / 138 nm Alesund lufthavn - Vigra

Altitude Profile

Advertisement - Login to hide

ENBR

Details ICAO ENBR (BGO)
Name Bergen Lufthavn Flesland
Region Norway
Timezone Europe/Oslo (UTC+2.0)
Stats Elevation 166 ft / 51 m (AMSL)
Location 60.293600° 5.218060°
Runways 1
Magnetic Variation 1.084° E

METAR

ENBR 231820Z 14006KT 120V180 CAVOK 18/M00 Q1015 NOSIG RMK WIND 1200FT 13015KT

Decode

TAF

TAF ENBR 231700Z 2318/2418 16012KT CAVOK BECMG 2318/2320 10008KT BECMG 2407/2409 16015G25KT PROB40 2415/2418 SCT020CB

Decode

Departure Runways

ID Width Length Bearing (true/mag) Surface Threshold Overrun Markings Lighting
17 148 ft / 45 m 9,791 ft / 2,984 m 170.53° / 169.44° ASPHALT 876 ft / 267 m 0 ft / 0 m PREC-APP CENTERLINE EDGE THRESHOLD ALSF-II TDZ REIL-OMNI
35 148 ft / 45 m 9,791 ft / 2,984 m 350.53° / 349.45° ASPHALT 889 ft / 271 m 0 ft / 0 m PREC-APP CENTERLINE EDGE THRESHOLD ALSF-I REIL-OMNI

ENAL

Details ICAO ENAL (AES)
Name Alesund
Region Norway
Timezone Europe/Oslo (UTC+2.0)
Stats Elevation 67 ft / 20 m (AMSL)
Location 62.560400° 6.109990°
Runways 1
Magnetic Variation 1.423° E

METAR

ENAL 231820Z VRB03KT CAVOK 14/00 Q1017

Decode

TAF

Not found

Destination Runways

ID Width Length Bearing (true/mag) Surface Threshold Overrun Markings Lighting
07 142 ft / 43 m 7,604 ft / 2,318 m 64.82° / 63.40° ASPHALT 492 ft / 150 m 0 ft / 0 m PREC-APP EDGE THRESHOLD MALSF
25 142 ft / 43 m 7,604 ft / 2,318 m 244.86° / 243.43° ASPHALT 751 ft / 229 m 0 ft / 0 m PREC-APP EDGE THRESHOLD MALSF

Approach Navaids

Runway Type Ident Frequency Range Bearing (true/mag) Slope Elevation
25 LOC-ILS VGR 111.95 MHz 18 nm / 33 km 244.61° / 243.19 ° - 72 ft / 22 m (AMSL)
25 GS VGR 111.95 MHz 10 nm / 19 km 245.22° / 243.80 ° 3.00° 18 ft / 5 m (AMSL)

Popular Alternatives